Regional Weather Roundup
Issued by NWS Albany, NY

Home | Current Version | Previous Version | Graphics & Text | Print | Product List | Glossary On
Versions: 1 2 3 4 5 6 7 8 9 10 11 12 13 14 15 16 17 18 19 20 21 22 23 24 25 26 27 28 29 30 31 32 33 34 35 36 37 38 39 40 41 42 43 44 45 46 47 48 49 50
000
ASUS41 KALY 230810
RWRALY

NEW YORK STATE HOURLY WEATHER ROUNDUP
NATIONAL WEATHER SERVICE ALBANY NY
400 AM EDT SAT MAY 23 2015

NOTE: "FAIR" INDICATES FEW OR NO CLOUDS BELOW 12,000 FEET WITH NO
SIGNIFICANT WEATHER AND/OR NO OBSTRUCTIONS TO VISIBILITY.

NYZ032-033-038>043-046>054-057>066-NYZ062>081-230900-
EAST


CITY           SKY/WX    TMP DP  RH WIND       PRES   REMARKS
ALBANY         CLEAR     40  23  50 NW6       30.27R
GLENS FALLS    CLEAR     37  22  54 CALM      30.25R
POUGHKEEPSIE   CLEAR     46  27  47 N10       30.27R
NEWBURGH       CLEAR     43  30  61 NW9       30.26R
MONTGOMERY     CLEAR     44  28  53 W7        30.27R
WHITE PLAINS   CLEAR     49  25  39 W12       30.24R
ISLIP          CLEAR     52  25  35 NW15G21   30.22R
NEW YORK CITY  CLEAR     53  26  35 NW14      30.27R
CENTRAL PARK   CLEAR     53  24  32 VRB5      30.30R
$$

NYZ005>009-017-018-044>046-055-056-230900-
CENTRAL


CITY           SKY/WX    TMP DP  RH WIND       PRES   REMARKS
FULTON         CLEAR     33  28  81 SW3       30.33R
SYRACUSE       CLEAR     37  29  72 W5        30.33R WCI  33
ROME           CLEAR     33  25  72 NW5       30.32R WCI  29
ELMIRA         CLEAR     33  28  81 W6        30.34R WCI  28
BINGHAMTON     FAIR      34  27  75 W5        30.28R WCI  30
MONTICELLO     CLEAR     36  27  69 W6        30.27R WCI  31
$$

NYZ026>034-041>043-230900-
NORTH


CITY           SKY/WX    TMP DP  RH WIND       PRES   REMARKS
WATERTOWN      CLEAR     28  26  92 CALM      30.32R
FORT DRUM      NOT AVBL
MASSENA        CLEAR     35  24  64 W6        30.29R WCI  30
SARANAC LAKE   CLEAR     28  19  69 CALM      30.20R
PLATTSBURGH    CLEAR     38  22  52 NW8       30.24R WCI  32
$$

NYZ001>004-010>016-019>021-230900-
WEST


CITY           SKY/WX    TMP DP  RH WIND       PRES   REMARKS
NIAGARA FALLS  CLEAR     34  28  79 CALM      30.35R
BUFFALO        PTCLDY    37  29  72 S3        30.36R
DUNKIRK        CLEAR     33  31  92 CALM      30.36F
JAMESTOWN      CLEAR     36  25  64 NE5       30.33S WCI  32
WELLSVILLE     CLEAR     33  24  69 W6        30.34R WCI  28
ROCHESTER      CLEAR     34  30  85 SW5       30.35R WCI  30
PENN YAN       CLEAR     38  29  70 W3        30.34R
$$

             KEY
       WCI = WIND CHILL INDEX
       VSB = VISIBILITY
       HX  = HEAT INDEX
$$



USA.gov is the U.S. government's official web portal to all federal, state and local government web resources and services.